Time,TemperatureF,DewpointF,PressureIn,WindDirection,WindDirectionDegrees,WindSpeedMPH,WindSpeedGustMPH,Humidity,HourlyPrecipIn,Conditions,Clouds,dailyrainin,SoftwareType,DateUTC
2013-02-25 00:00:00,26.1,19.8,30.33,East,90,0.0,0.0,77,0.00,,,0.00,WUHU216HW,2013-02-25 06:00:00,
2013-02-25 00:05:00,26.1,19.8,30.33,East,90,0.0,0.0,77,0.00,,,0.00,WUHU216HW,2013-02-25 06:05:00,
2013-02-25 00:30:00,26.3,20.0,30.33,East,90,0.0,0.0,77,0.00,,,0.00,WUHU216HW,2013-02-25 06:30:00,
2013-02-25 00:35:00,26.3,20.0,30.33,East,90,0.0,0.0,77,0.00,,,0.00,WUHU216HW,2013-02-25 06:35:00,
2013-02-25 01:00:00,26.3,20.0,30.33,East,90,0.0,0.0,77,0.00,,,0.00,WUHU216HW,2013-02-25 07:00:00,
2013-02-25 01:05:00,26.3,20.0,30.33,East,90,0.0,0.0,77,0.00,,,0.00,WUHU216HW,2013-02-25 07:05:00,
2013-02-25 01:30:00,26.3,20.0,30.33,East,90,0.2,0.2,77,0.00,,,0.00,WUHU216HW,2013-02-25 07:30:00,
2013-02-25 01:35:00,26.3,20.0,30.33,East,90,0.2,0.2,77,0.00,,,0.00,WUHU216HW,2013-02-25 07:35:00,
2013-02-25 02:00:00,26.3,20.4,30.33,East,90,0.0,0.0,78,0.00,,,0.00,WUHU216HW,2013-02-25 08:00:00,
2013-02-25 02:05:00,26.3,20.4,30.33,East,90,0.0,0.0,78,0.00,,,0.00,WUHU216HW,2013-02-25 08:05:00,
2013-02-25 02:30:00,26.5,20.4,30.32,East,90,0.0,0.0,78,0.00,,,0.00,WUHU216HW,2013-02-25 08:30:00,
2013-02-25 02:35:00,26.5,20.4,30.32,East,90,0.0,0.0,78,0.00,,,0.00,WUHU216HW,2013-02-25 08:35:00,
2013-02-25 03:00:00,26.5,20.4,30.32,North,0,0.0,0.0,78,0.00,,,0.00,WUHU216HW,2013-02-25 09:00:00,
2013-02-25 03:05:00,26.5,20.4,30.32,North,0,0.0,0.0,78,0.00,,,0.00,WUHU216HW,2013-02-25 09:05:00,
2013-02-25 03:30:00,26.5,20.4,30.31,North,0,0.0,0.0,78,0.00,,,0.00,WUHU216HW,2013-02-25 09:30:00,
2013-02-25 03:35:00,26.5,20.4,30.31,North,0,0.0,0.0,78,0.00,,,0.00,WUHU216HW,2013-02-25 09:35:00,
2013-02-25 04:00:00,26.5,20.4,30.30,North,0,0.0,0.0,78,0.00,,,0.00,WUHU216HW,2013-02-25 10:00:00,
2013-02-25 04:05:00,26.5,20.4,30.30,North,0,0.0,0.0,78,0.00,,,0.00,WUHU216HW,2013-02-25 10:05:00,
2013-02-25 04:30:00,26.5,20.4,30.31,East,90,0.0,0.0,78,0.00,,,0.00,WUHU216HW,2013-02-25 10:30:00,
2013-02-25 04:35:00,26.5,20.4,30.31,East,90,0.0,0.0,78,0.00,,,0.00,WUHU216HW,2013-02-25 10:35:00,
2013-02-25 05:00:00,26.6,20.6,30.31,East,90,0.0,0.0,78,0.00,,,0.00,WUHU216HW,2013-02-25 11:00:00,
2013-02-25 05:05:00,26.6,20.6,30.31,East,90,0.0,0.0,78,0.00,,,0.00,WUHU216HW,2013-02-25 11:05:00,
2013-02-25 05:30:00,26.6,20.6,30.30,East,90,0.0,0.0,78,0.00,,,0.00,WUHU216HW,2013-02-25 11:30:00,
2013-02-25 05:35:00,26.6,20.6,30.30,East,90,0.0,0.0,78,0.00,,,0.00,WUHU216HW,2013-02-25 11:35:00,
2013-02-25 06:00:00,26.6,20.6,30.32,East,90,0.0,0.0,78,0.00,,,0.00,WUHU216HW,2013-02-25 12:00:00,
2013-02-25 06:05:00,26.6,20.6,30.32,East,90,0.0,0.0,78,0.00,,,0.00,WUHU216HW,2013-02-25 12:05:00,
2013-02-25 06:30:00,26.6,21.0,30.33,SSW,203,0.0,0.0,79,0.00,,,0.00,WUHU216HW,2013-02-25 12:30:00,
2013-02-25 06:35:00,26.6,21.0,30.33,SSW,203,0.0,0.0,79,0.00,,,0.00,WUHU216HW,2013-02-25 12:35:00,
2013-02-25 07:00:00,26.6,21.0,30.33,SSW,203,0.0,0.0,79,0.00,,,0.00,WUHU216HW,2013-02-25 13:00:00,
2013-02-25 07:05:00,26.6,21.0,30.33,SSW,203,0.0,0.0,79,0.00,,,0.00,WUHU216HW,2013-02-25 13:05:00,
2013-02-25 07:30:00,26.8,21.2,30.33,WSW,248,0.7,0.7,79,0.00,,,0.00,WUHU216HW,2013-02-25 13:30:00,
2013-02-25 07:35:00,26.8,21.2,30.33,WSW,248,0.7,0.7,79,0.00,,,0.00,WUHU216HW,2013-02-25 13:35:00,
2013-02-25 08:00:00,27.0,21.3,30.33,WSW,248,0.4,0.4,79,0.00,,,0.00,WUHU216HW,2013-02-25 14:00:00,
2013-02-25 08:05:00,27.0,21.3,30.33,WSW,248,0.4,0.4,79,0.00,,,0.00,WUHU216HW,2013-02-25 14:05:00,
2013-02-25 08:30:00,27.7,22.1,30.34,WSW,248,0.4,0.4,79,0.00,,,0.00,WUHU216HW,2013-02-25 14:30:00,
2013-02-25 08:35:00,27.7,22.1,30.34,WSW,248,0.4,0.4,79,0.00,,,0.00,WUHU216HW,2013-02-25 14:35:00,
2013-02-25 09:00:00,28.3,22.2,30.34,West,270,1.6,1.6,78,0.00,,,0.00,WUHU216HW,2013-02-25 15:00:00,
2013-02-25 09:05:00,28.3,22.2,30.34,West,270,1.6,1.6,78,0.00,,,0.00,WUHU216HW,2013-02-25 15:05:00,
2013-02-25 09:30:00,29.0,22.7,30.34,NW,315,0.9,0.9,77,0.00,,,0.00,WUHU216HW,2013-02-25 15:30:00,
2013-02-25 09:35:00,29.0,22.7,30.34,NW,315,0.9,0.9,77,0.00,,,0.00,WUHU216HW,2013-02-25 15:35:00,
2013-02-25 10:00:00,30.2,23.9,30.34,WSW,248,1.1,1.1,77,0.00,,,0.00,WUHU216HW,2013-02-25 16:00:00,
2013-02-25 10:05:00,30.2,23.9,30.34,WSW,248,1.1,1.1,77,0.00,,,0.00,WUHU216HW,2013-02-25 16:05:00,
2013-02-25 10:30:00,31.7,25.0,30.34,WNW,293,0.4,0.4,76,0.00,,,0.00,WUHU216HW,2013-02-25 16:30:00,
2013-02-25 10:35:00,31.7,25.0,30.34,WNW,293,0.4,0.4,76,0.00,,,0.00,WUHU216HW,2013-02-25 16:35:00,
2013-02-25 11:00:00,32.9,25.8,30.34,SSW,203,2.5,2.5,75,0.00,,,0.00,WUHU216HW,2013-02-25 17:00:00,
2013-02-25 11:05:00,32.9,25.8,30.34,SSW,203,2.5,2.5,75,0.00,,,0.00,WUHU216HW,2013-02-25 17:05:00,
2013-02-25 11:30:00,34.2,26.4,30.34,SSE,158,0.0,0.0,73,0.00,,,0.00,WUHU216HW,2013-02-25 17:30:00,
2013-02-25 11:35:00,34.2,26.4,30.34,SSE,158,0.0,0.0,73,0.00,,,0.00,WUHU216HW,2013-02-25 17:35:00,
2013-02-25 12:00:00,34.2,26.0,30.33,NNW,338,1.1,1.1,72,0.00,,,0.00,WUHU216HW,2013-02-25 18:00:00,
2013-02-25 12:05:00,34.2,26.0,30.33,NNW,338,1.1,1.1,72,0.00,,,0.00,WUHU216HW,2013-02-25 18:05:00,
2013-02-25 12:30:00,34.2,25.8,30.32,WSW,248,1.8,1.8,71,0.00,,,0.00,WUHU216HW,2013-02-25 18:30:00,
2013-02-25 12:35:00,34.2,25.8,30.32,WSW,248,1.8,1.8,71,0.00,,,0.00,WUHU216HW,2013-02-25 18:35:00,
2013-02-25 13:00:00,35.1,26.9,30.32,WSW,248,1.8,1.8,72,0.00,,,0.00,WUHU216HW,2013-02-25 19:00:00,
2013-02-25 13:05:00,35.1,26.9,30.32,WSW,248,1.8,1.8,72,0.00,,,0.00,WUHU216HW,2013-02-25 19:05:00,
2013-02-25 13:30:00,35.6,27.2,30.31,SE,135,1.8,1.8,71,0.00,,,0.00,WUHU216HW,2013-02-25 19:30:00,
2013-02-25 13:35:00,35.6,27.2,30.31,SE,135,1.8,1.8,71,0.00,,,0.00,WUHU216HW,2013-02-25 19:35:00,
2013-02-25 14:00:00,35.8,27.0,30.30,WNW,293,2.5,2.5,70,0.00,,,0.00,WUHU216HW,2013-02-25 20:00:00,
2013-02-25 14:05:00,35.8,27.0,30.30,WNW,293,2.5,2.5,70,0.00,,,0.00,WUHU216HW,2013-02-25 20:05:00,
2013-02-25 14:30:00,34.2,25.0,30.29,NNW,338,0.9,0.9,69,0.00,,,0.00,WUHU216HW,2013-02-25 20:30:00,
2013-02-25 14:35:00,34.2,25.0,30.29,NNW,338,0.9,0.9,69,0.00,,,0.00,WUHU216HW,2013-02-25 20:35:00,
2013-02-25 15:00:00,34.2,25.4,30.29,NNW,338,1.8,1.8,70,0.00,,,0.00,WUHU216HW,2013-02-25 21:00:00,
2013-02-25 15:05:00,34.2,25.4,30.29,NNW,338,1.8,1.8,70,0.00,,,0.00,WUHU216HW,2013-02-25 21:05:00,
2013-02-25 15:30:00,33.7,24.5,30.30,WNW,293,2.2,2.2,69,0.00,,,0.00,WUHU216HW,2013-02-25 21:30:00,
2013-02-25 15:35:00,33.7,24.5,30.30,WNW,293,2.2,2.2,69,0.00,,,0.00,WUHU216HW,2013-02-25 21:35:00,
2013-02-25 16:00:00,33.5,24.3,30.30,West,270,3.1,3.1,69,0.00,,,0.00,WUHU216HW,2013-02-25 22:00:00,
2013-02-25 16:05:00,33.5,24.3,30.30,West,270,3.1,3.1,69,0.00,,,0.00,WUHU216HW,2013-02-25 22:05:00,
2013-02-25 16:30:00,33.3,24.2,30.30,WSW,248,2.5,2.5,69,0.00,,,0.00,WUHU216HW,2013-02-25 22:30:00,
2013-02-25 16:35:00,33.3,24.2,30.30,WSW,248,2.5,2.5,69,0.00,,,0.00,WUHU216HW,2013-02-25 22:35:00,
2013-02-25 17:00:00,33.1,24.4,30.29,NW,315,0.0,0.0,70,0.00,,,0.00,WUHU216HW,2013-02-25 23:00:00,
2013-02-25 17:05:00,33.1,24.4,30.29,NW,315,0.0,0.0,70,0.00,,,0.00,WUHU216HW,2013-02-25 23:05:00,
2013-02-25 17:30:00,32.4,23.8,30.30,NNW,338,1.1,1.1,70,0.00,,,0.00,WUHU216HW,2013-02-25 23:30:00,
2013-02-25 17:35:00,32.4,23.8,30.30,NNW,338,1.1,1.1,70,0.00,,,0.00,WUHU216HW,2013-02-25 23:35:00,
2013-02-25 18:00:00,31.3,22.7,30.29,WNW,293,0.9,0.9,70,0.00,,,0.00,WUHU216HW,2013-02-26 00:00:00,
2013-02-25 18:05:00,31.3,22.7,30.29,WNW,293,0.9,0.9,70,0.00,,,0.00,WUHU216HW,2013-02-26 00:05:00,
2013-02-25 18:30:00,30.2,22.2,30.29,WSW,248,0.4,0.4,72,0.00,,,0.00,WUHU216HW,2013-02-26 00:30:00,
2013-02-25 18:35:00,30.2,22.2,30.29,WSW,248,0.4,0.4,72,0.00,,,0.00,WUHU216HW,2013-02-26 00:35:00,
2013-02-25 19:00:00,29.0,21.4,30.30,SW,225,0.4,0.4,73,0.00,,,0.00,WUHU216HW,2013-02-26 01:00:00,
2013-02-25 19:05:00,29.0,21.4,30.30,SW,225,0.4,0.4,73,0.00,,,0.00,WUHU216HW,2013-02-26 01:05:00,
2013-02-25 19:30:00,27.7,20.8,30.31,SW,225,0.9,0.9,75,0.00,,,0.00,WUHU216HW,2013-02-26 01:30:00,
2013-02-25 19:35:00,27.7,20.8,30.31,SW,225,0.9,0.9,75,0.00,,,0.00,WUHU216HW,2013-02-26 01:35:00,
2013-02-25 20:00:00,26.1,19.2,30.30,SW,225,0.0,0.0,75,0.00,,,0.00,WUHU216HW,2013-02-26 02:00:00,
2013-02-25 20:05:00,26.1,19.2,30.30,SW,225,0.0,0.0,75,0.00,,,0.00,WUHU216HW,2013-02-26 02:05:00,
2013-02-25 20:30:00,24.8,18.6,30.29,South,180,0.0,0.0,77,0.00,,,0.00,WUHU216HW,2013-02-26 02:30:00,
2013-02-25 20:35:00,24.8,18.6,30.29,South,180,0.0,0.0,77,0.00,,,0.00,WUHU216HW,2013-02-26 02:35:00,
2013-02-25 21:00:00,24.3,18.5,30.29,SSE,158,0.2,0.2,78,0.00,,,0.00,WUHU216HW,2013-02-26 03:00:00,
2013-02-25 21:05:00,24.3,18.5,30.29,SSE,158,0.2,0.2,78,0.00,,,0.00,WUHU216HW,2013-02-26 03:05:00,
2013-02-25 21:30:00,22.3,16.2,30.28,ENE,68,0.0,0.0,77,0.00,,,0.00,WUHU216HW,2013-02-26 03:30:00,
2013-02-25 21:35:00,22.3,16.2,30.28,ENE,68,0.0,0.0,77,0.00,,,0.00,WUHU216HW,2013-02-26 03:35:00,
2013-02-25 22:00:00,21.2,15.4,30.27,SE,135,0.0,0.0,78,0.00,,,0.00,WUHU216HW,2013-02-26 04:00:00,
2013-02-25 22:05:00,21.2,15.4,30.27,SE,135,0.0,0.0,78,0.00,,,0.00,WUHU216HW,2013-02-26 04:05:00,
2013-02-25 22:30:00,20.5,15.0,30.27,East,90,1.1,1.1,79,0.00,,,0.00,WUHU216HW,2013-02-26 04:30:00,
2013-02-25 22:35:00,20.5,15.0,30.27,East,90,1.1,1.1,79,0.00,,,0.00,WUHU216HW,2013-02-26 04:35:00,
2013-02-25 23:00:00,18.5,13.3,30.27,SE,135,0.0,0.0,80,0.00,,,0.00,WUHU216HW,2013-02-26 05:00:00,
2013-02-25 23:05:00,18.5,13.3,30.27,SE,135,0.0,0.0,80,0.00,,,0.00,WUHU216HW,2013-02-26 05:05:00,
2013-02-25 23:30:00,17.5,12.0,30.29,West,270,0.0,0.0,79,0.00,,,0.00,WUHU216HW,2013-02-26 05:30:00,
2013-02-25 23:35:00,17.5,12.0,30.29,West,270,0.0,0.0,79,0.00,,,0.00,WUHU216HW,2013-02-26 05:35:00,